Weather History for North Wilkesboro, NC

Change the Weather History Date:

Friday, February 1, 2013

  Actual Average Record
Temperature  
Mean Temperature 29 °F -  
Max Temperature 37 °F 51 °F 75 °F (1975)
Min Temperature 19 °F 21 °F -5 °F (1966)
Degree Days  
Heating Degree Days 36    
Moisture  
Dew Point 9 °F    
Average Humidity 46    
Maximum Humidity 81    
Minimum Humidity 30    
Precipitation  
Precipitation 0.00 in - - ()
Sea Level Pressure  
Sea Level Pressure 30.21 in    
Wind  
Wind Speed 6 mph (WNW)    
Max Wind Speed 21 mph    
Max Gust Speed 32 mph    
Visibility 10 miles    
Events      
Averages and records for this station are not official NWS values.
T = Trace of Precipitation, MM = Missing Value Source: NWS Daily Summary

Daily Weather History Graph

Daily Weather History Graph

Search for Another Location

Airport:

Trip Planner

Search our weather history database for the weather conditions in past years. The results will help you decide how hot, cold, wet, or windy it might be!

Date:

Astronomy

Feb. 01, 2013 Rise Set
Actual Time 7:25 AM EST 5:51 PM EST
Civil Twilight 6:58 AM EST 6:18 PM EST
Nautical Twilight 6:27 AM EST 6:49 PM EST
Astronomical Twilight 5:57 AM EST 7:19 PM EST
Moon 11:43 PM EST (2/1) 10:09 AM EST (2/1)
Length of Visible Light 11h 20m
Length of Day
10h 26m
Waning Gibbous, 70% of the Moon is Illuminated
Feb 1
Waning Gibbous
Feb 3
Last Quarter
Feb 10
New
Feb 17
First Quarter
Feb 25
Full

Hourly Weather History & Observations

Time (EST) Temp. Windchill Dew Point Humidity Pressure Visibility Wind Dir Wind Speed Gust Speed Precip Events Conditions
12:15 AM 33.8 °F - 19.4 °F 56% 29.98 in 10.0 mi Calm Calm - N/A   Clear
12:35 AM 32.0 °F 28.7 °F 21.2 °F 64% 29.97 in 10.0 mi SW 3.5 mph - N/A   Clear
12:55 AM 32.0 °F - 21.2 °F 64% 29.96 in 10.0 mi Calm Calm - N/A   Clear
1:15 AM 32.0 °F 28.7 °F 21.2 °F 64% 29.95 in 10.0 mi SW 3.5 mph - N/A   Clear
1:35 AM 32.0 °F - 21.2 °F 64% 29.94 in 10.0 mi Calm Calm - N/A   Mostly Cloudy
1:55 AM 32.0 °F - 21.2 °F 64% 29.93 in 10.0 mi Calm Calm - N/A   Overcast
2:15 AM 32.0 °F - 21.2 °F 64% 29.91 in 10.0 mi Calm Calm - N/A   Overcast
2:35 AM 33.8 °F - 21.2 °F 60% 29.91 in 10.0 mi Calm Calm - N/A   Overcast
3:15 AM 33.8 °F 29.6 °F 23.0 °F 65% 29.90 in 10.0 mi WSW 4.6 mph - N/A   Overcast
3:35 AM 35.6 °F 30.7 °F 23.0 °F 60% 29.90 in 10.0 mi West 5.8 mph - N/A   Overcast
4:15 AM 35.6 °F 31.7 °F 24.8 °F 65% 29.90 in 10.0 mi SW 4.6 mph - N/A   Mostly Cloudy
4:35 AM 35.6 °F 25.9 °F 28.4 °F 75% 29.91 in 10.0 mi West 16.1 mph 21.9 mph N/A   Mostly Cloudy
4:55 AM 37.4 °F 30.8 °F 28.4 °F 70% 29.93 in 10.0 mi West 9.2 mph 20.7 mph N/A   Overcast
5:15 AM 35.6 °F 25.9 °F 30.2 °F 81% 29.97 in 10.0 mi NNW 16.1 mph 23.0 mph N/A   Overcast
5:35 AM 32.0 °F 23.0 °F 24.8 °F 75% 29.99 in 10.0 mi WNW 11.5 mph 23.0 mph N/A   Mostly Cloudy
6:15 AM 32.0 °F 19.8 °F 12.2 °F 44% 30.03 in 10.0 mi West 20.7 mph 32.2 mph N/A   Scattered Clouds
6:35 AM 30.2 °F 19.3 °F 8.6 °F 40% 30.06 in 10.0 mi NW 15.0 mph 26.5 mph N/A   Clear
6:55 AM 28.4 °F 17.0 °F 6.8 °F 40% 30.09 in 10.0 mi WNW 15.0 mph 32.2 mph N/A   Clear
7:15 AM 28.4 °F 17.0 °F 5.0 °F 37% 30.11 in 10.0 mi West 15.0 mph 27.6 mph N/A   Clear
7:35 AM 28.4 °F 16.2 °F 6.8 °F 40% 30.13 in 10.0 mi NW 17.3 mph 26.5 mph N/A   Scattered Clouds
7:55 AM 26.6 °F 14.7 °F 6.8 °F 43% 30.15 in 10.0 mi NW 15.0 mph 19.6 mph N/A   Clear
8:15 AM 26.6 °F 19.1 °F 8.6 °F 47% 30.18 in 10.0 mi NW 6.9 mph 17.3 mph N/A   Scattered Clouds
8:35 AM 26.6 °F 15.2 °F 8.6 °F 47% 30.20 in 10.0 mi NW 13.8 mph 27.6 mph N/A   Clear
9:15 AM 26.6 °F 19.1 °F 5.0 °F 40% 30.22 in 10.0 mi WNW 6.9 mph 19.6 mph N/A   Clear
9:35 AM 26.6 °F 14.3 °F 5.0 °F 40% 30.23 in 10.0 mi NW 16.1 mph 20.7 mph N/A   Clear
9:55 AM 26.6 °F 15.2 °F 3.2 °F 37% 30.24 in 10.0 mi NW 13.8 mph 24.2 mph N/A   Clear
10:15 AM 26.6 °F 18.2 °F 3.2 °F 37% 30.26 in 10.0 mi WNW 8.1 mph 18.4 mph N/A   Clear
10:35 AM 28.4 °F 19.1 °F 3.2 °F 34% 30.27 in 10.0 mi West 10.4 mph 25.3 mph N/A   Clear
10:55 AM 28.4 °F 20.4 °F 3.2 °F 34% 30.28 in 10.0 mi WNW 8.1 mph 18.4 mph N/A   Clear
11:15 AM 28.4 °F 17.5 °F 1.4 °F 31% 30.28 in 10.0 mi WNW 13.8 mph 24.2 mph N/A   Clear
11:35 AM 28.4 °F 19.7 °F 1.4 °F 31% 30.29 in 10.0 mi NNW 9.2 mph 27.6 mph N/A   Clear
11:55 AM 30.2 °F 20.8 °F 3.2 °F 32% 30.30 in 10.0 mi WNW 11.5 mph 23.0 mph N/A   Clear
12:15 PM 30.2 °F 19.8 °F 3.2 °F 32% 30.28 in 10.0 mi WNW 13.8 mph 23.0 mph N/A   Clear
12:35 PM 30.2 °F 20.2 °F 3.2 °F 32% 30.29 in 10.0 mi West 12.7 mph 23.0 mph N/A   Clear
12:55 PM 30.2 °F 20.2 °F 3.2 °F 32% 30.27 in 10.0 mi NW 12.7 mph 21.9 mph N/A   Clear
1:15 PM 30.2 °F 21.3 °F 3.2 °F 32% 30.27 in 10.0 mi WNW 10.4 mph 19.6 mph N/A   Clear
1:35 PM 32.0 °F 22.1 °F 3.2 °F 30% 30.27 in 10.0 mi West 13.8 mph 19.6 mph N/A   Clear
1:55 PM 32.0 °F 24.2 °F 3.2 °F 30% 30.28 in 10.0 mi WNW 9.2 mph 20.7 mph N/A   Clear
2:15 PM 32.0 °F 24.2 °F 3.2 °F 30% 30.28 in 10.0 mi NW 9.2 mph 21.9 mph N/A   Clear
2:35 PM 32.0 °F 22.5 °F 3.2 °F 30% 30.28 in 10.0 mi West 12.7 mph 20.7 mph N/A   Clear
2:55 PM 32.0 °F 24.8 °F 3.2 °F 30% 30.29 in 10.0 mi NW 8.1 mph 18.4 mph N/A   Clear
3:15 PM 32.0 °F 22.1 °F 3.2 °F 30% 30.29 in 10.0 mi NW 13.8 mph 18.4 mph N/A   Clear
3:35 PM 32.0 °F 26.4 °F 5.0 °F 32% 30.29 in 10.0 mi West 5.8 mph - N/A   Clear
3:55 PM 32.0 °F 24.2 °F 3.2 °F 30% 30.30 in 10.0 mi West 9.2 mph 18.4 mph N/A   Clear
4:15 PM 32.0 °F 24.8 °F 3.2 °F 30% 30.30 in 10.0 mi WNW 8.1 mph - N/A   Clear
4:35 PM 32.0 °F 26.4 °F 3.2 °F 30% 30.30 in 10.0 mi WNW 5.8 mph - N/A   Clear
4:55 PM 32.0 °F 24.8 °F 3.2 °F 30% 30.30 in 10.0 mi NW 8.1 mph 16.1 mph N/A   Clear
5:15 PM 30.2 °F 24.3 °F 3.2 °F 32% 30.31 in 10.0 mi NW 5.8 mph - N/A   Clear
5:35 PM 30.2 °F 24.3 °F 3.2 °F 32% 30.30 in 10.0 mi NNW 5.8 mph - N/A   Clear
5:55 PM 28.4 °F 21.2 °F 5.0 °F 37% 30.32 in 10.0 mi NW 6.9 mph - N/A   Clear
6:15 PM 28.4 °F 20.4 °F 5.0 °F 37% 30.32 in 10.0 mi NW 8.1 mph - N/A   Clear
6:35 PM 26.6 °F 22.6 °F 5.0 °F 40% 30.32 in 10.0 mi NW 3.5 mph - N/A   Clear
6:55 PM 26.6 °F 22.6 °F 5.0 °F 40% 30.33 in 10.0 mi West 3.5 mph - N/A   Clear
7:15 PM 26.6 °F 22.6 °F 5.0 °F 40% 30.34 in 10.0 mi West 3.5 mph - N/A   Clear
7:35 PM 26.6 °F 22.6 °F 5.0 °F 40% 30.35 in 10.0 mi WNW 3.5 mph - N/A   Clear
7:55 PM 26.6 °F - 5.0 °F 40% 30.36 in 10.0 mi Calm Calm - N/A   Clear
8:15 PM 24.8 °F 20.5 °F 6.8 °F 46% 30.37 in 10.0 mi NW 3.5 mph - N/A   Clear
8:35 PM 23.0 °F - 8.6 °F 54% 30.37 in 10.0 mi Calm Calm - N/A   Clear
8:55 PM 23.0 °F - 8.6 °F 54% 30.38 in 10.0 mi Calm Calm - N/A   Clear
9:15 PM 23.0 °F - 6.8 °F 50% 30.37 in 10.0 mi Calm Calm - N/A   Clear
9:35 PM 23.0 °F - 8.6 °F 54% 30.37 in 10.0 mi Calm Calm - N/A   Clear
9:55 PM 21.2 °F - 8.6 °F 58% 30.37 in 10.0 mi Calm Calm - N/A   Clear
10:15 PM 21.2 °F - 8.6 °F 58% 30.37 in 10.0 mi Calm Calm - N/A   Clear
10:35 PM 21.2 °F - 8.6 °F 58% 30.37 in 10.0 mi Calm Calm - N/A   Clear
10:55 PM 21.2 °F - 8.6 °F 58% 30.37 in 10.0 mi Calm Calm - N/A   Clear
11:15 PM 21.2 °F - 8.6 °F 58% 30.37 in 10.0 mi Calm Calm - N/A   Clear
11:35 PM 21.2 °F - 8.6 °F 58% 30.37 in 10.0 mi Calm Calm - N/A   Clear
11:55 PM 19.4 °F - 12.2 °F 74% 30.38 in 10.0 mi Calm Calm - N/A   Clear